Change the Weather History Date:

Tuesday, March 19, 2013

  Actual Average (KEDW) Record (KEDW)
Temperature  
Mean Temperature 68 °F -  
Max Temperature 79 °F 70 °F 87 °F (2004)
Min Temperature 57 °F 39 °F 23 °F (2002)
Cooling Degree Days 2    
Growing Degree Days 18 (Base 50)    
Moisture  
Dew Point 26 °F    
Average Humidity 23    
Maximum Humidity 32    
Minimum Humidity 12    
Precipitation  
Precipitation 0.00 in - - ()
Sea Level Pressure  
Sea Level Pressure 29.99 in    
Wind  
Wind Speed 15 mph (West)    
Max Wind Speed 26 mph    
Max Gust Speed 34 mph    
Visibility 10 miles    
Events      
Averages and records for this station are not official NWS values.
T = Trace of Precipitation, MM = Missing Value Source: NWS Daily Summary

Daily Weather History Graph

Daily Weather History Graph

Search for Another Location

Airport or City:

Trip Planner

Search our weather history database for the weather conditions in past years. The results will help you decide how hot, cold, wet, or windy it might be!

Date:

Astronomy

Mar. 19, 2013 Rise Set
Actual Time 6:56 AM PDT 7:02 PM PDT
Civil Twilight 6:30 AM PDT 7:27 PM PDT
Nautical Twilight 6:01 AM PDT 7:57 PM PDT
Astronomical Twilight 5:31 AM PDT 8:27 PM PDT
Moon 12:02 PM PDT (3/19) 1:40 AM PDT (3/19)
Length of Visible Light 12h 57m
Length of Day
12h 06m
Waxing Crescent, 51% of the Moon is Illuminated
Mar 19
Waxing Crescent
Mar 27
Full
Apr 2
Last Quarter
Apr 10
New
Apr 18
First Quarter

Hourly Weather History & Observations

Time (PDT) Temp. Dew Point Humidity Pressure Visibility Wind Dir Wind Speed Gust Speed Precip Events Conditions
12:55 AM 62.1 °F 18.0 °F 18% 29.94 in 10.0 mi West 11.5 mph - N/A   Clear
1:55 AM 62.1 °F 26.1 °F 25% 29.95 in 10.0 mi WSW 17.3 mph - N/A   Clear
2:55 AM 61.0 °F 26.1 °F 26% 29.96 in 10.0 mi West 10.4 mph - N/A   Clear
3:55 AM 60.1 °F 21.9 °F 23% 29.94 in 10.0 mi West 21.9 mph 29.9 mph N/A   Partly Cloudy
4:55 AM 57.0 °F 27.0 °F 32% 29.95 in 10.0 mi West 25.3 mph 32.2 mph N/A   Clear
5:55 AM 57.0 °F 26.1 °F 30% 29.98 in 10.0 mi West 26.5 mph - N/A   Clear
6:55 AM 57.9 °F 23.0 °F 26% 29.99 in 10.0 mi West 20.7 mph 27.6 mph N/A   Clear
7:55 AM 57.0 °F 25.0 °F 29% 30.01 in 10.0 mi West 24.2 mph 33.4 mph N/A   Clear
8:55 AM 60.1 °F 27.0 °F 28% 30.02 in 10.0 mi West 24.2 mph 34.5 mph N/A   Clear
9:55 AM 68.0 °F 26.1 °F 21% 30.02 in 10.0 mi West 19.6 mph 26.5 mph N/A   Clear
10:55 AM 73.0 °F 26.1 °F 17% 30.01 in 10.0 mi West 9.2 mph 19.6 mph N/A   Clear
11:55 AM 75.9 °F 23.0 °F 14% 30.01 in 10.0 mi North 8.1 mph - N/A   Clear
12:55 PM 75.9 °F 23.0 °F 14% 30.00 in 10.0 mi Variable 6.9 mph - N/A   Clear
1:55 PM 78.1 °F 21.9 °F 12% 29.98 in 10.0 mi Calm Calm - N/A   Clear
2:55 PM 78.1 °F 21.9 °F 12% 29.96 in 10.0 mi Variable 3.5 mph - N/A   Clear
3:55 PM 78.1 °F 26.1 °F 15% 29.94 in 10.0 mi SSW 10.4 mph 17.3 mph N/A   Clear
4:55 PM 78.1 °F 26.1 °F 15% 29.94 in 10.0 mi West 10.4 mph - N/A   Clear
5:55 PM 73.0 °F 28.9 °F 20% 29.95 in 10.0 mi West 23.0 mph 32.2 mph N/A   Clear
6:55 PM 68.0 °F 30.0 °F 24% 29.98 in 10.0 mi West 19.6 mph 27.6 mph N/A   Clear
7:55 PM 64.9 °F 32.0 °F 29% 30.01 in 10.0 mi WSW 15.0 mph 24.2 mph N/A   Clear
8:55 PM 64.0 °F 32.0 °F 30% 30.03 in 10.0 mi WSW 17.3 mph - N/A   Clear
9:55 PM 64.0 °F 30.0 °F 28% 30.03 in 10.0 mi WSW 12.7 mph - N/A   Clear
10:55 PM 62.1 °F 30.0 °F 30% 30.04 in 10.0 mi SW 8.1 mph - N/A   Clear
11:55 PM 64.0 °F 30.0 °F 28% 30.01 in 10.0 mi West 15.0 mph - N/A   Clear